Regional Weather Roundup
Issued by NWS

Home | Current Version | Previous Version | Text Only | Print | Product List | Glossary On
Versions: 1 2 3 4 5 6 7 8 9 10 11 12 13 14 15 16 17 18 19 20 21 22 23 24 25 26 27 28 29 30 31 32 33 34 35 36 37 38 39 40 41 42 43 44 45 46 47 48 49 50
000
ASUS42 KFFC 261203
RWRGA
WEATHER ROUNDUP FOR GEORGIA
NATIONAL WEATHER SERVICE PEACHTREE CITY GA
800 AM EDT TUE MAY 26 2015

NOTE: "FAIR" INDICATES FEW OR NO CLOUDS BELOW 12,000 FEET WITH NO
SIGNIFICANT WEATHER AND/OR OBSTRUCTIONS TO VISIBILITY.

* = USE WITH CAUTION. THE STATIONS MARKED WITH AN ASTERISK MAY NOT
REPORT WEATHER SUCH AS PRECIPITATION, FOG, OR THUNDER AND ARE NOT
QUALITY CONTROLLED BY NWS.

THE REMARK "TC" DENOTES TEMPERATURE READING IN DEGREES CELSIUS.

GAZ001>058-261300-
NORTH GEORGIA

CITY           SKY/WX    TMP DP  RH WIND       PRES   REMARKS
ATLANTA        CLOUDY    72  67  84 SE8       30.23R
6HR MIN TEMP:  70; 6HR MAX TEMP:  72;

ATHENS         CLOUDY    71  67  87 VRB3      30.26R
6HR MIN TEMP:  69; 6HR MAX TEMP:  72;

CHAMBLEE       CLOUDY    70  68  93 SE8       30.24R FOG
6HR MIN TEMP:  68; 6HR MAX TEMP:  70;

PEACHTREE CITY CLOUDY    72  68  87 SE7       30.23R
6HR MIN TEMP:  70; 6HR MAX TEMP:  72;

ROME           CLOUDY    72  70  93 S5        30.19R
6HR MIN TEMP:  68; 6HR MAX TEMP:  72;

WEST ATLANTA   CLOUDY    72  68  87 SE8       30.22R
6HR MIN TEMP:  69; 6HR MAX TEMP:  72;

GAINESVILLE    CLOUDY    68  67  96 SE7       30.28R
6HR MIN TEMP:  66; 6HR MAX TEMP:  68; 6HR PCP: TRACE;

CARTERSVILLE   CLOUDY    72  68  87 SE6       30.22R
6HR MIN TEMP:  69; 6HR MAX TEMP:  72;



CITY           SKY/WX    TMP DP  RH WIND       PRES   REMARKS
DALTON*        CLOUDY    70  70 100 SE5       30.20R
LAWRENCEVILLE* CLOUDY    70  63  78 SE6       30.24R FOG
MARIETTA       CLOUDY    72  70  94 SE10      30.23R FOG
KENNESAW*      CLOUDY    72  68  88 SE8       30.23R FOG
BLAIRSVILLE*   LGT RAIN  67  60  77 E6        30.29R
$$

GAZ059>098-102>109-261300-
CENTRAL GEORGIA

CITY           SKY/WX    TMP DP  RH WIND       PRES   REMARKS
AUGUSTA-BUSH   CLOUDY    71  69  93 SE5       30.26R FOG
6HR MIN TEMP:  69; 6HR MAX TEMP:  71;

AUGUSTA-DANIEL CLOUDY    72  68  87 SE5       30.27R
6HR MIN TEMP:  72; 6HR MAX TEMP:  72;

COLUMBUS       CLOUDY    71  69  93 SE5       30.20R
6HR MIN TEMP:  70; 6HR MAX TEMP:  72;

MACON          CLOUDY    73  70  90 SE5       30.23R
6HR MIN TEMP:  70; 6HR MAX TEMP:  73;

ROBINS AFB     CLOUDY    73  71  95 SE6       30.23R


CITY           SKY/WX    TMP DP  RH WIND       PRES   REMARKS
LAGRANGE*      CLOUDY    76  75  97 S9        30.21R
SYLVANIA*      FOG       72  72 100 CALM      30.27R VSB 3/4
MILLEDGEVILLE* CLOUDY    72  72 100 CALM      30.24S
$$

GAZ099>101-110>166-261300-
SOUTH GEORGIA

CITY           SKY/WX    TMP DP  RH WIND       PRES   REMARKS
SAVANNAH       PTSUNNY   74  71  91 E5        30.26R
6HR MIN TEMP:  69; 6HR MAX TEMP:  74;

VALDOSTA       CLOUDY    73  72  96 SE5       30.21R
6HR MIN TEMP:  72; 6HR MAX TEMP:  76;

ALMA           CLOUDY    73  72  96 SE5       30.24R
6HR MIN TEMP:  72; 6HR MAX TEMP:  73;

FT STEWART     MOSUNNY   73  72  95 E2        30.23R
ALBANY         MOSUNNY   75  71  87 SE8       30.22R
HUNTER AFB     SUNNY     77  76  97 SE2       30.23R
MOODY AFB      CLOUDY    74  71  92 SE7       30.21R
BRUNSWICK      MOSUNNY   77  72  83 SE6       30.25R


CITY           SKY/WX    TMP DP  RH WIND       PRES   REMARKS
BAINBRIDGE*    SUNNY     77  73  88 SE7       30.19R
MOULTRIE*      MOSUNNY   73  72  94 SE3       30.21R
VIDALIA*       CLOUDY    72  70  94 CALM      30.25R
WAYCROSS*      CLOUDY    73  73 100 SE3       30.23R FOG
DOUGLAS*       CLOUDY    75  72  88 S5        30.25R
$$


USA.gov is the U.S. government's official web portal to all federal, state and local government web resources and services.